Total_Precipitation_Accumulation
1.93 1.88 1.76 1.67 1.58 1.50 1.45 1.43 1.33 1.25 1.14 1.07 1.03 1.02 0.95 0.80 0.69 0.64 0.59 0.67 0.72 0.79 0.97 1.19 1.41 1.71 2.00 2.06 2.06 1.89 1.75 1.71 1.57 1.43 1.38 1.51 1.60 1.54 1.46 1.51 1.42 1.25 1.22
2.07 2.01 1.90 1.74 1.66 1.57 1.46 1.43 1.37 1.31 1.22 1.10 0.99 0.91 0.93 0.91 0.82 0.78 0.70 0.67 0.64 0.63 0.79 1.04 1.29 1.59 2.00 2.23 2.31 2.38 2.15 2.01 1.94 1.72 1.48 1.43 1.52 1.55 1.55 1.57 1.61 1.51 1.38
2.26 2.17 2.05 1.92 1.76 1.71 1.67 1.58 1.53 1.45 1.37 1.21 1.07 0.96 0.88 0.90 0.86 0.83 0.80 0.74 0.69 0.64 0.68 0.87 1.10 1.39 1.73 2.08 2.34 2.57 2.65 2.36 2.25 2.17 1.88 1.58 1.53 1.60 1.67 1.70 1.72 1.77 1.65
2.45 2.45 2.22 2.07 1.85 1.80 1.81 1.78 1.67 1.58 1.46 1.32 1.20 1.04 0.91 0.87 0.86 0.86 0.86 0.79 0.77 0.72 0.70 0.74 0.85 1.10 1.44 1.82 2.15 2.44 2.92 2.82 2.58 2.46 2.37 2.01 1.70 1.62 1.68 1.79 1.85 1.89 1.96
2.51 2.60 2.54 2.32 2.13 2.03 1.89 1.81 1.71 1.61 1.53 1.42 1.34 1.23 1.08 0.96 0.91 0.93 0.88 0.79 0.73 0.74 0.74 0.76 0.81 0.90 1.16 1.50 1.91 2.28 2.87 3.15 3.06 2.94 2.83 2.61 2.17 1.85 1.76 1.83 1.95 2.02 2.12
2.40 2.45 2.55 2.54 2.43 2.34 2.17 2.00 1.87 1.69 1.57 1.50 1.49 1.47 1.28 1.11 1.03 0.99 0.97 0.88 0.78 0.71 0.74 0.78 0.81 0.83 0.95 1.19 1.54 1.95 2.44 2.90 3.12 3.22 3.20 3.22 2.99 2.47 2.14 2.03 2.09 2.22 2.33
2.36 2.34 2.28 2.37 2.39 2.34 2.22 2.11 2.01 1.95 1.81 1.65 1.72 1.78 1.64 1.34 1.14 1.03 0.99 0.97 0.87 0.77 0.73 0.75 0.81 0.82 0.87 1.01 1.21 1.53 1.97 2.49 2.90 3.13 3.20 3.30 3.53 3.35 2.86 2.51 2.40 2.46 2.58
2.25 2.34 2.35 2.23 2.20 2.20 2.18 2.10 2.01 1.96 1.91 1.78 1.76 1.87 1.88 1.76 1.40 1.05 0.95 0.94 0.93 0.91 0.84 0.78 0.78 0.84 0.90 0.94 0.96 1.17 1.51 2.04 2.64 3.12 3.33 3.42 3.64 3.94 3.76 3.26 2.97 2.89 2.98
2.18 2.15 2.28 2.29 2.19 2.13 2.10 2.05 1.95 1.86 1.85 1.73 1.56 1.76 1.85 1.61 1.29 1.09 0.96 0.87 0.85 0.93 0.92 0.88 0.84 0.81 0.89 0.97 0.95 0.98 1.15 1.56 2.18 2.76 3.28 3.59 3.76 4.11 4.36 4.11 3.67 3.43 3.48
2.22 2.14 2.12 2.20 2.23 2.12 1.99 1.97 1.98 1.92 1.93 1.92 1.71 1.50 1.47 1.37 1.35 1.19 1.03 0.97 0.91 0.88 0.92 0.92 0.92 0.86 0.86 0.96 1.03 1.01 1.07 1.26 1.73 2.38 2.95 3.56 3.95 4.27 4.74 4.72 4.42 3.95 3.72
2.19 2.16 2.15 2.15 2.15 2.12 1.97 1.90 1.93 1.98 2.00 1.99 1.90 1.67 1.48 1.26 1.18 1.27 1.09 0.98 1.06 1.01 0.95 0.97 0.98 0.97 0.92 0.93 1.01 1.06 1.15 1.28 1.63 2.10 2.63 3.29 4.13 4.50 4.98 5.22 4.86 4.27 3.83
2.22 2.12 2.06 2.08 2.05 1.96 1.91 1.86 1.84 1.82 1.86 1.88 1.84 1.74 1.65 1.54 1.31 1.28 1.20 0.98 0.98 1.00 1.01 1.03 1.08 1.05 1.01 1.01 1.04 1.29 1.33 1.45 1.61 1.90 2.24 2.70 3.43 4.24 4.78 5.12 4.98 4.47 4.04
2.19 2.11 2.04 1.98 1.96 1.87 1.79 1.78 1.80 1.77 1.70 1.72 1.74 1.66 1.56 1.45 1.34 1.38 1.49 1.35 1.17 1.03 1.07 1.12 1.07 1.08 1.10 1.14 1.21 1.40 1.48 1.48 1.44 1.64 1.86 2.03 2.43 3.13 3.97 4.67 5.04 4.86 4.44
1.99 1.93 1.99 1.94 1.89 1.87 1.86 1.84 1.80 1.78 1.76 1.66 1.58 1.56 1.57 1.45 1.42 1.53 1.66 1.76 1.69 1.29 1.09 1.09 1.05 1.03 1.14 1.18 1.28 1.45 1.32 1.45 1.46 1.53 1.65 1.78 1.95 2.31 2.98 3.80 4.68 5.20 4.99
1.93 1.92 1.92 1.91 1.86 1.90 1.98 2.01 1.96 1.82 1.77 1.73 1.66 1.56 1.56 1.51 1.47 1.47 1.55 1.73 2.06 1.89 1.29 0.97 0.99 1.03 1.12 1.23 1.28 1.18 1.13 1.38 1.47 1.54 1.65 1.73 1.84 2.01 2.35 2.93 3.60 4.56 5.22
1.87 1.90 1.91 1.92 1.87 1.81 1.89 1.99 1.95 1.86 1.85 1.77 1.75 1.72 1.59 1.51 1.52 1.56 1.63 1.66 1.76 1.94 1.62 0.99 0.87 0.94 1.10 1.29 1.42 1.20 1.17 1.40 1.44 1.51 1.52 1.55 1.71 1.90 2.12 2.42 2.83 3.44 4.39
1.84 1.82 1.79 1.82 1.89 1.86 1.81 1.89 1.86 1.81 1.83 1.76 1.71 1.74 1.64 1.54 1.66 1.70 1.76 1.79 1.73 1.77 1.80 1.18 0.93 1.00 1.25 1.40 1.48 1.34 1.31 1.30 1.31 1.46 1.52 1.53 1.57 1.79 1.99 2.16 2.36 2.74 3.42
1.82 1.75 1.71 1.73 1.78 1.81 1.79 1.83 1.83 1.79 1.78 1.75 1.69 1.70 1.69 1.62 1.63 1.67 1.78 1.80 1.72 1.64 1.75 1.53 1.19 1.17 1.32 1.47 1.53 1.51 1.48 1.42 1.29 1.41 1.48 1.58 1.57 1.70 1.92 2.03 2.14 2.37 2.75
1.89 1.74 1.69 1.71 1.74 1.81 1.80 1.75 1.85 1.84 1.75 1.68 1.64 1.66 1.69 1.69 1.62 1.57 1.67 1.72 1.66 1.62 1.67 1.70 1.43 1.28 1.38 1.54 1.70 1.74 1.68 1.65 1.49 1.47 1.49 1.57 1.68 1.71 1.84 1.98 2.10 2.21 2.35
1.89 1.80 1.68 1.64 1.71 1.84 1.87 1.84 1.93 1.91 1.80 1.66 1.55 1.53 1.60 1.74 1.76 1.74 1.75 1.71 1.74 1.85 1.83 1.83 1.66 1.48 1.51 1.63 1.81 1.91 1.93 1.86 1.76 1.58 1.60 1.67 1.74 1.80 1.79 1.83 1.85 1.91 2.03
1.71 1.73 1.74 1.67 1.70 1.94 2.17 2.30 2.18 1.93 1.76 1.67 1.49 1.39 1.47 1.75 1.98 2.15 2.18 2.01 2.03 2.23 2.21 2.17 2.02 1.78 1.65 1.72 1.85 1.85 1.95 1.91 1.89 1.76 1.66 1.67 1.66 1.64 1.65 1.70 1.74 1.77 1.86
1.73 1.70 1.72 1.70 1.66 1.86 2.33 2.55 2.16 1.78 1.64 1.61 1.54 1.39 1.40 1.69 1.89 2.08 2.24 2.19 2.20 2.40 2.53 2.47 2.29 1.99 1.63 1.51 1.61 1.86 2.12 2.33 2.30 1.96 1.78 1.81 1.65 1.71 1.68 1.60 1.75 1.82 1.86
1.75 1.72 1.69 1.68 1.65 1.73 2.14 2.36 2.12 1.76 1.60 1.51 1.45 1.41 1.44 1.54 1.71 1.73 1.91 2.00 1.97 2.12 2.37 2.48 2.46 1.98 1.74 1.62 1.89 2.20 2.24 2.36 2.23 2.09 2.10 2.22 1.88 1.81 1.73 1.77 1.89 1.83 1.91
1.66 1.66 1.66 1.63 1.61 1.68 2.03 2.27 2.12 1.79 1.68 1.58 1.53 1.43 1.36 1.40 1.55 1.75 1.86 1.85 1.73 1.75 1.97 2.15 2.34 2.13 1.92 1.97 2.34 2.70 2.83 2.82 2.50 2.31 2.25 2.55 2.14 1.91 1.82 1.80 1.90 1.80 1.82
1.66 1.59 1.58 1.62 1.58 1.62 1.97 2.31 2.18 1.82 1.76 1.64 1.59 1.51 1.37 1.31 1.57 1.80 1.75 1.71 1.61 1.61 1.75 1.97 2.14 2.21 2.24 2.40 2.74 3.24 3.46 3.47 3.15 2.69 2.40 2.49 2.36 2.18 2.18 2.17 2.11 2.00 1.82
1.59 1.59 1.55 1.56 1.54 1.53 1.83 2.25 2.34 1.86 1.74 1.64 1.62 1.55 1.62 1.57 1.71 1.76 1.62 1.69 1.80 1.64 1.54 1.59 1.66 1.71 1.74 1.90 2.38 2.86 3.30 3.52 3.28 3.12 2.62 2.46 2.45 2.51 3.00 2.77 2.36 2.05 1.88